[[{"header":{"parameterUnit":"m.s-1","parameterCategory":1,"la1":30.2991,"la2":30.254,"lo1":-89.0895,"lo2":-89.0444,"dy":0.0017,"dx":0.0017,"nx":28,"ny":28,"refTime":"2024-02-16T03:00:00:Z","depth":0,"parameterNumber":2,"parameterNumberName":"U-component_of_WINDS"},"data":[0,0,0,0,0,0,0,0,0,0,0,0,0,0,0,0,0,0,0,0,0,0,0,0,0,0,0,0,0,0,0,0,0,0,0,0,0,0,0,0,0,0,0,0,0,0,0,0,0,0,0,0,0,0,0,0,0,0,-0.9491,-0.9491,0,-0.9487,-0.9487,-0.9487,-0.9449,-0.9448,-0.9447,-0.9446,-0.9443,-0.9444,-0.9444,0,0,0,0,0,0,0,0,0,0,0,0,0,-0.9467,-0.9468,-0.9491,-0.9491,-0.949,-0.9487,-0.9487,-0.9487,-0.9449,-0.9448,-0.9447,-0.9446,-0.9442,-0.9443,-0.9444,0,0,0,0,0,0,0,0,0,0,0,0,0,-0.9472,-0.9468,-0.9491,-0.9471,-0.947,-0.9487,-0.9487,-0.9487,-0.9449,-0.9448,-0.9447,-0.9445,-0.9442,-0.9443,-0.9444,-0.948,0,0,-0.9448,-0.9449,0,0,0,0,0,0,0,0,-0.9472,-0.9473,-0.9474,-0.9473,-0.9471,-0.9467,-0.9477,-0.9484,-0.945,-0.9457,-0.9446,-0.9445,-0.9452,-0.9452,-0.9455,-0.948,-0.948,-0.9448,-0.9449,-0.9449,-0.945,0,0,0,0,0,0,0,-0.9471,-0.9473,-0.9489,-0.9474,-0.9472,-0.9463,-0.9463,-0.9478,-0.9462,-0.9456,-0.9454,-0.9454,-0.9451,-0.9454,-0.9454,-0.948,-0.9448,-0.9449,-0.945,-0.945,-0.9536,-0.9538,0,0,0,0,0,0,-0.9474,-0.9473,-0.9489,-0.9489,-0.9468,-0.9465,-0.9464,-0.947,-0.9462,-0.946,-0.9455,-0.9452,-0.9452,-0.9453,-0.9454,-0.9497,-0.9449,-0.9451,-0.9451,-0.9535,-0.9536,-0.9538,0,0,0,0,0,0,-0.9473,-0.9475,-0.9489,-0.948,-0.9481,-0.9467,-0.9473,-0.947,-0.9473,-0.9461,-0.9458,-0.9461,-0.9451,-0.9452,-0.9474,-0.9496,-0.9451,-0.9452,-0.9533,-0.9535,-0.9537,-0.9581,0,0,0,0,0,0,-0.9473,-0.9475,-0.9488,-0.9481,-0.9482,-0.9509,-0.9475,-0.9471,-0.9475,-0.9471,-0.9466,-0.9463,-0.945,-0.9473,-0.9475,-0.9497,-0.9453,-0.9531,-0.9534,-0.9537,-0.9578,-0.9585,-0.9591,0,0,0,0,0,-0.9472,-0.95,-0.9489,-0.9491,-0.9497,-0.9511,-0.9511,-0.9495,-0.9477,-0.949,-0.9483,-0.9464,-0.9493,-0.9475,-0.9478,-0.95,-0.9529,-0.9533,-0.9536,-0.9575,-0.9583,-0.9591,0,0,0,0,0,0,-0.9511,-0.9499,-0.9486,-0.9513,-0.9513,-0.9504,-0.952,-0.9505,-0.951,-0.9506,-0.9486,-0.9485,-0.9511,-0.9507,-0.9488,-0.9535,-0.9508,-0.9512,-0.9536,-0.9544,-0.9551,-0.9551,-0.9454,0,0,0,0,0,-0.9522,-0.9534,-0.9523,-0.9548,-0.9548,-0.9535,-0.954,-0.9527,-0.9527,-0.9527,-0.9521,-0.9521,-0.9531,-0.9537,-0.9545,-0.9577,-0.9576,-0.9594,-0.96,-0.9606,-0.961,-0.9628,-0.9636,-0.955,-0.955,-0.955,0,0,-0.9547,-0.9542,-0.955,-0.9555,-0.9554,-0.9567,-0.9535,-0.9549,-0.9559,-0.9529,-0.9549,-0.9545,-0.9545,-0.9572,-0.9584,-0.957,-0.9633,-0.961,-0.9614,-0.9616,-0.9633,-0.9641,-0.9648,-0.9552,-0.9552,-0.9551,0,0,-0.9598,-0.9594,-0.9616,-0.9615,-0.9614,-0.9604,-0.961,-0.9603,-0.96,-0.962,-0.9599,-0.961,-0.9626,-0.9627,-0.963,-0.9683,-0.9666,-0.9686,-0.972,-0.9739,-0.9745,-0.9751,-0.9772,-0.9779,-0.969,-0.969,-0.969,0,-0.9628,-0.9646,-0.9628,-0.9645,-0.9649,-0.9622,-0.9644,-0.9645,-0.9646,-0.965,-0.9634,-0.9655,-0.9653,-0.9681,-0.9694,-0.9697,-0.9703,-0.9687,-0.9746,-0.9752,-0.9757,-0.9776,-0.9784,-0.9693,-0.9692,-0.9692,-0.9692,0,-0.9685,-0.9698,-0.9715,-0.9717,-0.9723,-0.9742,-0.9728,-0.9736,-0.9724,-0.9717,-0.9739,-0.9735,-0.9743,-0.9748,-0.9736,-0.9776,-0.9767,-0.9749,-0.9722,-0.9768,-0.9786,-0.9793,-0.9696,-0.9695,-0.9695,-0.9694,0,0,-0.9759,-0.9753,-0.976,-0.9761,-0.9758,-0.9768,-0.9787,-0.9794,-0.9802,-0.9804,-0.982,-0.9836,-0.9819,-0.9822,-0.981,-0.9826,-0.9871,-0.9806,-0.9806,-0.9819,-0.9916,-0.9931,-0.994,-0.9859,-0.9861,-0.9862,-0.9917,0,-0.981,-0.9841,-0.9826,-0.9859,-0.9872,-0.9848,-0.9864,-0.9865,-0.9859,-0.987,-0.9863,-0.9875,-0.9852,-0.9854,-0.9868,-0.9862,-0.989,-0.9858,-0.9875,-0.9876,-0.9877,-0.9949,-0.9964,-1.0016,-0.9923,-0.9925,-0.9925,0,-0.9872,-0.9878,-0.9912,-0.9909,-0.9914,-0.9929,-0.9935,-0.9945,-0.9946,-0.9941,-0.9945,-0.993,-0.9949,-0.9921,-0.9948,-0.9927,-0.9933,-0.9931,-0.9933,-0.9935,-0.9904,-0.9953,-1.0031,-1.004,-0.9936,-0.9935,-0.9934,0,-0.9925,-0.9941,-0.9964,-0.9966,-0.9962,-0.9974,-0.9973,-0.9972,-0.9978,-0.9984,-0.9988,-0.9996,-1.0001,-1.0008,-0.9996,-0.9977,-1.0025,-0.9996,-1.0022,-1.0023,-1.0034,-1.0034,-1.0115,-1.0036,-1.0036,-1.0036,-1.0036,0,-0.9984,-1.0006,-0.9988,-1.0003,-1.0028,-1.0011,-1.0037,-1.0033,-1.0033,-1.0047,-1.0026,-1.004,-1.0023,-1.0035,-1.0026,-1.005,-1.0052,-1.0049,-1.0047,-1.0052,-1.0052,-1.0056,-1.0053,-1.0038,-1.0038,-1.0037,-1.0037,0,-1.0047,-1.0036,-1.006,-1.0055,-1.0054,-1.0073,-1.0069,-1.0082,-1.0075,-1.0094,-1.0097,-1.0086,-1.01,-1.0088,-1.0101,-1.0095,-1.0128,-1.012,-1.0128,-1.0126,-1.0154,-1.0152,-1.0242,-1.0254,-1.0166,-1.0167,-1.0168,0,-1.0086,-1.0103,-1.0099,-1.0107,-1.0108,-1.0121,-1.0127,-1.0112,-1.0119,-1.0122,-1.0136,-1.0148,-1.0157,-1.018,-1.0174,-1.0184,-1.0177,-1.0208,-1.0178,-1.0183,-1.0179,-1.0179,-1.0181,-1.0214,-1.0215,-1.0216,-1.0216,0,-1.0156,-1.015,-1.0159,-1.0168,-1.0176,-1.0182,-1.0187,-1.0195,-1.0179,-1.0189,-1.0203,-1.021,-1.0224,-1.0236,-1.0245,-1.0244,-1.0229,-1.0226,-1.0233,-1.0239,-1.0243,-1.0243,-1.0146,-1.0224,-1.0223,-1.0223,-1.0222,-1.0222,-1.0209,-1.0223,-1.0224,-1.0236,-1.0238,-1.0243,-1.0256,-1.0251,-1.0262,-1.0273,-1.0263,-1.028,-1.0282,-1.0292,-1.0294,-1.0308,-1.0295,-1.0304,-1.0307,-1.031,-1.0315,-1.024,-1.0309,-1.0309,-1.0308,-1.0308,-1.0308,0,-1.0279,-1.0278,-1.029,-1.0297,-1.0307,-1.0291,-1.0295,-1.0305,-1.0321,-1.0323,-1.0333,-1.035,-1.0362,-1.0358,-1.0369,-1.0381,-1.0375,-1.0385,-1.0385,-1.0385,-1.0325,-1.0318,-1.039,-1.039,-1.039,-1.039,-1.039,-1.039,-1.0317,-1.0341,-1.0336,-1.0361,-1.0361,-1.0377,-1.0382,-1.0387,-1.0389,-1.0409,-1.0419,-1.0416,-1.0417,-1.0428,-1.044,-1.0438,-1.0444,-1.0457,-1.0453,-1.0397,-1.0389,-1.0381,-1.0375,-1.0458,-1.0458,-1.0513,-1.0513,-1.0513]},{"header":{"parameterUnit":"m.s-1","parameterCategory":1,"la1":30.2991,"la2":30.254,"lo1":-89.0895,"lo2":-89.0444,"dy":0.0017,"dx":0.0017,"nx":28,"ny":28,"refTime":"2024-02-16T03:00:00:Z","depth":0,"parameterNumber":3,"parameterNumberName":"V-component_of_WINDS"},"data":[0,0,0,0,0,0,0,0,0,0,0,0,0,0,0,0,0,0,0,0,0,0,0,0,0,0,0,0,0,0,0,0,0,0,0,0,0,0,0,0,0,0,0,0,0,0,0,0,0,0,0,0,0,0,0,0,0,0,3.1835,3.1835,0,3.1838,3.1839,3.1839,3.1827,3.1827,3.1827,3.1826,3.1828,3.1828,3.1829,0,0,0,0,0,0,0,0,0,0,0,0,0,3.1816,3.1816,3.1835,3.1835,3.1835,3.1838,3.1839,3.1839,3.1827,3.1827,3.1827,3.1826,3.1828,3.1828,3.1829,0,0,0,0,0,0,0,0,0,0,0,0,0,3.1822,3.1816,3.1835,3.183,3.183,3.1838,3.1839,3.1839,3.1828,3.1827,3.1827,3.1826,3.1828,3.1828,3.1829,3.1842,0,0,3.183,3.1831,0,0,0,0,0,0,0,0,3.1822,3.1823,3.1831,3.183,3.183,3.1832,3.1832,3.184,3.1828,3.1828,3.1826,3.1826,3.183,3.183,3.1832,3.1842,3.1842,3.1831,3.1831,3.1831,3.1831,0,0,0,0,0,0,0,3.1821,3.1822,3.1836,3.1831,3.183,3.1826,3.1827,3.1834,3.1832,3.1828,3.1827,3.1828,3.1829,3.1831,3.1832,3.1842,3.1831,3.1831,3.1831,3.1832,3.1861,3.1861,0,0,0,0,0,0,3.1822,3.1822,3.1836,3.1836,3.1825,3.1827,3.1828,3.1832,3.1832,3.1831,3.1828,3.1828,3.1831,3.1831,3.1832,3.1845,3.1831,3.1832,3.1832,3.1861,3.1861,3.1862,0,0,0,0,0,0,3.1821,3.1823,3.1836,3.1829,3.183,3.1828,3.1833,3.1832,3.1834,3.1832,3.1831,3.1831,3.183,3.1831,3.1839,3.1845,3.1832,3.1832,3.186,3.1861,3.1861,3.1874,0,0,0,0,0,0,3.1821,3.1823,3.1829,3.1829,3.1831,3.1845,3.1833,3.1833,3.1835,3.1834,3.1834,3.1833,3.183,3.1838,3.184,3.1846,3.1833,3.1859,3.186,3.1861,3.1873,3.1875,3.1877,0,0,0,0,0,3.182,3.1833,3.1829,3.1831,3.1838,3.1845,3.1846,3.1842,3.1836,3.1841,3.1839,3.1833,3.1845,3.1839,3.1841,3.1847,3.1859,3.186,3.1861,3.1872,3.1875,3.1877,0,0,0,0,0,0,3.1833,3.1833,3.1829,3.1842,3.1844,3.1843,3.185,3.1845,3.1848,3.1847,3.1841,3.1841,3.185,3.1849,3.1843,3.1859,3.1851,3.1852,3.1859,3.1861,3.1863,3.1862,3.1833,0,0,0,0,0,3.1837,3.1844,3.1843,3.1854,3.1855,3.1852,3.1855,3.1852,3.1853,3.1853,3.1852,3.1853,3.1856,3.1859,3.1862,3.1873,3.1872,3.1878,3.188,3.1882,3.1883,3.1886,3.1888,3.1865,3.1865,3.1865,0,0,3.1846,3.1847,3.1851,3.1857,3.1858,3.1863,3.1853,3.186,3.1863,3.1854,3.1862,3.1861,3.1861,3.187,3.1874,3.187,3.1889,3.1883,3.1884,3.1884,3.1888,3.189,3.1892,3.1866,3.1866,3.1866,0,0,3.1865,3.1867,3.1876,3.1877,3.1878,3.1876,3.1878,3.1878,3.1877,3.1884,3.1877,3.188,3.1887,3.1887,3.1888,3.1904,3.1898,3.1905,3.1915,3.1919,3.1921,3.1922,3.1927,3.1929,3.1907,3.1907,3.1907,0,3.1876,3.1885,3.1881,3.1888,3.1889,3.1882,3.1889,3.189,3.1892,3.1893,3.1888,3.1895,3.1895,3.1903,3.1907,3.1908,3.1909,3.1905,3.1921,3.1923,3.1924,3.1928,3.193,3.1907,3.1907,3.1907,3.1907,0,3.1897,3.1903,3.191,3.1912,3.1914,3.1922,3.1917,3.192,3.1916,3.1914,3.192,3.192,3.1922,3.1923,3.192,3.193,3.1928,3.1922,3.1914,3.1927,3.1931,3.1932,3.1908,3.1908,3.1908,3.1908,0,0,3.1925,3.1924,3.1926,3.1926,3.1926,3.193,3.1936,3.1938,3.194,3.1941,3.1945,3.195,3.1944,3.1945,3.1941,3.1944,3.1955,3.1938,3.1938,3.194,3.1965,3.1968,3.197,3.1952,3.1952,3.1952,3.1964,0,3.1942,3.1953,3.1949,3.196,3.1964,3.1956,3.196,3.196,3.1958,3.196,3.1957,3.196,3.1954,3.1954,3.1957,3.1953,3.196,3.1953,3.1954,3.1954,3.1953,3.1973,3.1977,3.1988,3.1966,3.1966,3.1966,0,3.1965,3.1966,3.1977,3.1975,3.1976,3.1981,3.1981,3.1984,3.1983,3.1981,3.1981,3.1976,3.198,3.1972,3.1976,3.1971,3.1971,3.197,3.197,3.1969,3.1961,3.1971,3.1992,3.1993,3.1969,3.1969,3.1969,0,3.1982,3.1987,3.1994,3.1994,3.1992,3.1995,3.1994,3.1992,3.1993,3.1993,3.1993,3.1994,3.1994,3.1994,3.1988,3.1983,3.1993,3.1985,3.199,3.199,3.1992,3.1992,3.2012,3.1994,3.1994,3.1994,3.1994,0,3.2001,3.2008,3.2001,3.2005,3.2012,3.2006,3.2012,3.201,3.2009,3.2011,3.2004,3.2006,3.1999,3.2,3.1996,3.1999,3.2,3.1997,3.1996,3.1997,3.1998,3.1997,3.1996,3.1994,3.1994,3.1994,3.1994,0,3.2021,3.2017,3.2024,3.2021,3.202,3.2025,3.2021,3.2024,3.2021,3.2024,3.2024,3.2019,3.202,3.2014,3.2014,3.2011,3.2016,3.2014,3.2017,3.2015,3.202,3.202,3.204,3.2042,3.2023,3.2024,3.2024,0,3.2033,3.2038,3.2035,3.2036,3.2036,3.2038,3.2039,3.2033,3.2034,3.2032,3.2034,3.2034,3.2034,3.2036,3.2031,3.203,3.2027,3.2034,3.2027,3.2028,3.2026,3.2025,3.2025,3.2036,3.2036,3.2036,3.2036,0,3.2055,3.2052,3.2054,3.2054,3.2055,3.2055,3.2054,3.2056,3.2049,3.205,3.2051,3.205,3.205,3.2049,3.2048,3.2045,3.2039,3.2039,3.204,3.2041,3.2042,3.204,3.202,3.2038,3.2038,3.2038,3.2038,3.2038,3.207,3.2073,3.2071,3.2073,3.2072,3.2071,3.2073,3.2069,3.207,3.2069,3.2066,3.2067,3.2063,3.206,3.2059,3.2058,3.2055,3.2057,3.2057,3.2057,3.2057,3.2043,3.2058,3.2058,3.2058,3.2058,3.2058,0,3.209,3.2088,3.2089,3.2089,3.2089,3.2084,3.2082,3.2083,3.2084,3.2082,3.2082,3.2082,3.2081,3.2076,3.2074,3.2075,3.2072,3.2075,3.2074,3.2073,3.2061,3.206,3.2077,3.2077,3.2077,3.2077,3.2077,3.2077,3.21,3.2105,3.2102,3.2105,3.2103,3.2104,3.2103,3.2102,3.21,3.21,3.21,3.2097,3.2093,3.2091,3.2089,3.2088,3.2087,3.209,3.2088,3.2076,3.2075,3.2073,3.2072,3.2091,3.2091,3.21,3.21,3.21]}]]